Zurück zum Katalog

STARLINK-3730

AktivKommunikationVLEO
NORAD 52139·PAYLOAD·🇺🇸 United States

Gestartet Mar 19, 2022 von Cape Canaveral Space Force Station

Loading…

Nächste Überflüge (nächste 24 Stunden)

TLE

AktuellSource: CelesTrak SupGP

Epoche: Sep 14, 2026, 21:22 UTC

1 52139C 22029BD  26257.89076389  .00018066  00000+0  53398-3 0  2575
2 52139  53.1562 295.5964 0001262 105.0313  14.7590 15.34369342    15

Verfolge STARLINK-3730 in Echtzeit mit AllMySat

Download on the App Store